Home   Weather   Lindlar   Past weeks

Flag for Germany Past Weather in Lindlar, North Rhine-Westphalia, Germany — Yesterday and Last 2 Weeks

Now
30 °F

Clear.


Feels Like: 30 °F
Forecast: 21 / 33 °F
Wind: 2 mph from North

Location: Koeln / Bonn

Current Time: Jan 20, 2017 at 7:11:08 pm

Latest Report: Jan 20, 2017 at 6:20 pm


Visibility: 10 mi

Pressure: 30.48 "Hg

Humidity: 69%

Dew Point: 21 °F

Location of LindlarLocation

Past Weather in Lindlar — Graph

°F

Lindlar Temperature Yesterday

Maximum temperature yesterday: 36 °F (at 2:20 pm)
Minimum temperature yesterday: 14 °F (at 8:50 am)
Average temperature yesterday: 24 °F

High & Low Weather Summary for the Past Weeks

 TemperatureHumidityPressure
High46 °F (Jan 11, 4:20 pm)100% (Jan 7, 4:20 pm)30.74 "Hg (Jan 7, 4:20 pm)
Low12 °F (Jan 18, 7:20 am)42% (Jan 20, 1:20 pm)28.97 "Hg (Jan 13, 1:20 am)
Average31 °F86%30.23 "Hg
* Reported Jan 5 5:20 pm — Jan 20 5:50 pm, Lindlar, Weather by CustomWeather, © 2017

Note: Actual official high and low records may vary slightly from our data, if they occured in-between our weather recording intervals... More about our weather records

Advertising

Lindlar Weather History for the Previous 24 Hours

Scroll right to see more
 ConditionsComfort  
Time TempWeatherWind HumidityBarometerVisibility
5:50 pm
Fri, Jan 20
34 °FClear.No wind60%30.48 "Hg10 mi
5:20 pm36 °FClear.1 mph56%30.48 "Hg10 mi
4:50 pm37 °FSunny.1 mph52%30.48 "Hg10 mi
4:20 pm39 °FSunny.3 mph52%30.51 "Hg10 mi
3:50 pm39 °FSunny.2 mph48%30.51 "Hg10 mi
3:20 pm39 °FSunny.3 mph48%30.51 "Hg10 mi
2:50 pm41 °FPassing clouds.5 mph42%30.51 "HgN/A
2:20 pm41 °FPassing clouds.3 mph42%30.51 "HgN/A
1:50 pm41 °FPassing clouds.5 mph45%30.51 "HgN/A
1:20 pm39 °FSunny.1 mph42%30.54 "Hg10 mi
12:50 pm37 °FSunny.2 mph52%30.54 "Hg10 mi
12:20 pm34 °FPassing clouds.3 mph51%30.54 "HgN/A
11:50 am32 °FPassing clouds.3 mph55%30.57 "HgN/A
11:20 am30 °FPassing clouds.5 mph55%30.57 "HgN/A
10:50 am28 °FPassing clouds.3 mph64%30.57 "HgN/A
10:20 am25 °FSunny.6 mph69%30.57 "Hg10 mi
9:50 am23 °FSunny.5 mph74%30.57 "Hg10 mi
9:20 am21 °FSunny.2 mph74%30.57 "Hg10 mi
8:50 am16 °FSunny.1 mph93%30.57 "Hg10 mi
8:20 am14 °FPassing clouds.3 mph92%30.57 "HgN/A
7:50 am16 °FClear.1 mph93%30.57 "Hg10 mi
7:20 am14 °FClear.1 mph92%30.57 "Hg10 mi
6:50 am16 °FPassing clouds.3 mph93%30.57 "HgN/A
6:20 am16 °FClear.5 mph93%30.57 "Hg10 mi
5:50 am18 °FClear.3 mph86%30.57 "Hg10 mi
5:20 am19 °FClear.2 mph86%30.57 "Hg10 mi
4:50 am18 °FClear.1 mph93%30.57 "Hg10 mi
4:20 am18 °FClear.2 mph86%30.57 "Hg10 mi
3:50 am18 °FPassing clouds.3 mph93%30.57 "HgN/A
3:20 am19 °FClear.1 mph86%30.57 "Hg10 mi
2:50 am18 °FClear.1 mph93%30.57 "Hg10 mi
2:20 am19 °FClear.2 mph93%30.57 "Hg10 mi
1:50 am18 °FClear.1 mph93%30.57 "Hg10 mi
12:50 am23 °FClear.3 mph80%30.57 "Hg10 mi
12:20 am21 °FPassing clouds.3 mph93%30.60 "HgN/A
11:50 pm
Thu, Jan 19
21 °FClear.3 mph93%30.60 "Hg10 mi
11:20 pm23 °FClear.6 mph86%30.60 "Hg10 mi
10:50 pm19 °FClear.5 mph93%30.60 "Hg10 mi
10:20 pm21 °FClear.3 mph86%30.60 "Hg10 mi
9:50 pm21 °FPassing clouds.3 mph86%30.60 "HgN/A
9:20 pm23 °FClear.1 mph86%30.60 "Hg10 mi
8:50 pm23 °FClear.1 mph93%30.60 "Hg10 mi
8:20 pm23 °FClear.1 mph86%30.60 "Hg10 mi
7:50 pm27 °FClear.2 mph80%30.60 "Hg10 mi
7:20 pm28 °FClear.1 mph74%30.60 "Hg10 mi
Weather by CustomWeather, © 2017

See weather overviewHow to use our weather pages